User: anonymous   Login
Location: Grums
(59.3529°N, 13.1129°E)
Time: 19:28:51
(UTC+02:00)
Language:

N. Korean satellite - Orbit

View from above orbital plane
View from above orbital plane
View from above satellite
View from above satellite

Ground track
Ground track

The orbit data is extracted from the following two-line orbital elements,

1 39026U 12072A   21299.04036571  .00005582  00000-0  18501-3 0  9999
2 39026  97.2551 288.8654 0032679 279.1546  80.5999 15.31162341493062
Epoch (UTC): 26 October 2021 00:58:07
Eccentricity: 0.0032679
inclination: 97.2551°
perigee height: 450 km
apogee height: 495 km
right ascension of ascending node: 288.8654°
argument of perigee: 279.1546°
revolutions per day: 15.31162341
mean anomaly at epoch: 80.5999°
orbit number at epoch: 49306

The dashed part of the orbit path shows where the satellite is in the earth's shadow,  

DLR